Gelidra Progression Standings

Encounter Details
Name Gelidra
Dungeon Frozen Tempest
Tier Storm Legion (SL1)
Raid Size 20
Release Date 2012-11-13
EU Time Diff 0 Days 8 Hours 0 Minutes
WW Clears 83
NA Clears 52
EU Clears 31
First Kill Exploit
Recent Kill Gaiscioch
Gelidra Standings
Rank Guild Server Date Completed Time Difference Server Achieved WR RR SR Kill Video(s) Screenshot
Worldwide Standings
1 Exploit EU-Typhiria 2012-11-18 07:39:00 --- EU-Typhiria
2 Addiction NA-Greybriar 2012-11-20 10:56:00 2 Days 3 Hours 17 Minutes NA-Greybriar
3 Trinity NA-Greybriar 2012-11-25 12:57:00 5 Days 2 Hours 1 Minutes NA-Laethys
4 Babytown NA-Faeblight 2012-11-25 14:24:00 0 Days 1 Hours 27 Minutes NA-Faeblight 4
5 Aegis NA-Hailol 2012-11-29 11:36:00 3 Days 21 Hours 12 Minutes NA-Hailol 5 4
6 Lucidium NA-Greybriar 2012-12-01 12:41:00 2 Days 1 Hours 5 Minutes NA-Greybriar 6 5
7 UNDECIDED NA-Deepwood 2012-12-01 13:00:00 0 Days 0 Hours 19 Minutes NA-Deepwood 7 6
8 Virus NA-Deepwood 2012-12-03 00:04:00 1 Days 11 Hours 4 Minutes NA-Deepwood 8 7
9 Drow NA-Wolfsbane 2012-12-04 09:48:00 1 Days 9 Hours 44 Minutes NA-Wolfsbane 9 8
10 Coriolis NA-Hailol 2012-12-04 17:48:00 0 Days 8 Hours 0 Minutes NA-Hailol 10 9
11 Mutiny NA-Greybriar 2012-12-05 11:00:00 0 Days 17 Hours 12 Minutes NA-Greybriar 11 10 4
12 Crayons NA-Greybriar 2012-12-05 12:15:00 0 Days 1 Hours 15 Minutes NA-Greybriar 12 11 5
13 The Chosen NA-Greybriar 2012-12-05 13:04:00 0 Days 0 Hours 49 Minutes NA-Greybriar 13 12 6
14 Arm Dearg EU-Zaviel 2012-12-05 14:16:00 0 Days 1 Hours 12 Minutes EU-Zaviel 14
15 ExTenebris EU-Brutwacht 2012-12-06 07:00:00 0 Days 16 Hours 44 Minutes EU-Brutwacht 15
16 Beep Beep Ima Jeep NA-Deepwood 2012-12-06 12:26:00 0 Days 5 Hours 26 Minutes NA-Deepwood 16 13
17 Snakes On A Planarite NA-Faeblight 2012-12-07 12:54:00 1 Days 0 Hours 28 Minutes NA-Faeblight 17 14
18 Negative Ghostrider NA-Wolfsbane 2012-12-10 11:34:00 2 Days 22 Hours 40 Minutes NA-Wolfsbane 18 15
19 Order of Shadow NA-Greybriar 2012-12-11 10:57:00 0 Days 23 Hours 23 Minutes NA-Greybriar 19 16 7
20 Transience NA-Deepwood 2012-12-12 10:12:00 0 Days 23 Hours 15 Minutes NA-Deepwood 20 17 4
21 Dawn of Terror NA-Faeblight 2012-12-12 11:39:00 0 Days 1 Hours 27 Minutes NA-Faeblight 21 18
22 Everlasting Vendetta NA-Greybriar 2012-12-12 12:04:00 0 Days 0 Hours 25 Minutes NA-Greybriar 22 19 8
23 Harshmallows EU-Gelidra 2012-12-13 04:33:00 0 Days 16 Hours 29 Minutes EU-Gelidra 23 4
24 Stack on 8 EU-Gelidra 2012-12-13 06:25:00 0 Days 1 Hours 52 Minutes EU-Gelidra 24 5
25 White Wing EU-Typhiria 2012-12-16 05:08:00 2 Days 22 Hours 43 Minutes EU-Typhiria 25 6
26 Rage EU-Brutwacht 2012-12-16 06:50:00 0 Days 1 Hours 42 Minutes EU-Brutwacht 26 7
27 Frontliners NA-Wolfsbane 2012-12-17 11:30:00 1 Days 4 Hours 40 Minutes NA-Wolfsbane 27 20
28 Imperium EU-Zaviel 2012-12-18 06:16:00 0 Days 18 Hours 46 Minutes EU-Zaviel 28 8
29 White Fang NA-Greybriar 2012-12-18 16:00:00 0 Days 9 Hours 44 Minutes NA-Greybriar 29 21 9
30 10 Inches Unbuffed NA-Greybriar 2012-12-20 12:38:00 1 Days 20 Hours 38 Minutes NA-Greybriar 30 22 10
31 Jynxed NA-Greybriar 2012-12-27 11:59:00 6 Days 23 Hours 21 Minutes NA-Greybriar 31 23 11
32 Thantos Gallone Xentos NA-Deepwood 2012-12-28 11:01:00 0 Days 23 Hours 2 Minutes NA-Deepwood 32 24 5
33 Nicely Played NA-Faeblight 2012-12-29 13:43:00 1 Days 2 Hours 42 Minutes NA-Faeblight 33 25 4
34 Cursed EU-Brisesol 2012-12-31 09:00:00 1 Days 19 Hours 17 Minutes EU-Brisesol 34 9
35 Divine Fury NA-Deepwood 2013-01-02 10:45:00 2 Days 1 Hours 45 Minutes NA-Deepwood 35 26 6
36 Too Many Buttons NA-Greybriar 2013-01-05 10:56:00 3 Days 0 Hours 11 Minutes NA-Greybriar 36 27 12
37 Bloodlust EU-Brisesol 2013-01-06 07:00:00 0 Days 20 Hours 4 Minutes EU-Brisesol 37 10
38 Unity. NA-Greybriar 2013-01-06 09:15:00 0 Days 2 Hours 15 Minutes NA-Greybriar 38 28 13
39 Sternenwanderer EU-Brutwacht 2013-01-08 04:30:00 1 Days 19 Hours 15 Minutes EU-Brutwacht 39 11
40 Allegiance NA-Greybriar 2013-01-08 16:00:00 0 Days 11 Hours 30 Minutes NA-Greybriar 40 29 14
41 Moloch EU-Zaviel 2013-01-14 05:48:00 5 Days 13 Hours 48 Minutes EU-Zaviel 41 12
42 Nephilim NA-Greybriar 2013-01-14 11:00:00 0 Days 5 Hours 12 Minutes NA-Greybriar 42 30 15
43 Nefarious NA-Laethys 2013-01-16 18:40:00 2 Days 7 Hours 40 Minutes NA-Laethys 43 31
44 Nordvegr NA-Faeblight 2013-02-02 15:16:00 16 Days 20 Hours 36 Minutes NA-Faeblight 44 32 5
45 TKagi Ro NA-Greybriar 2013-02-04 13:00:00 1 Days 21 Hours 44 Minutes NA-Greybriar 45 33 16
46 Heroes of Chronic EU-Brutwacht 2013-02-06 05:49:00 1 Days 16 Hours 49 Minutes EU-Brutwacht 46 13 4
47 ~Halcyon~ NA-Deepwood 2013-02-08 12:30:00 2 Days 6 Hours 41 Minutes NA-Deepwood 47 34 7
48 DreamTeam EU-Zaviel 2013-02-23 17:32:00 15 Days 5 Hours 2 Minutes EU-Zaviel 48 14 4
49 Lowland Elites EU-Zaviel 2013-02-24 11:59:00 0 Days 18 Hours 27 Minutes EU-Zaviel 49 15 5
50 Dirty Deeds NA-Faeblight 2013-02-24 12:10:00 0 Days 0 Hours 11 Minutes NA-Faeblight 50 35 6
51 D*Dragons EU-Gelidra 2013-02-28 03:33:00 3 Days 15 Hours 23 Minutes EU-Gelidra 51 16
52 The Art of War NA-Deepwood 2013-03-02 11:21:00 2 Days 7 Hours 48 Minutes NA-Deepwood 52 36 8
53 Bottom Line NA-Greybriar 2013-03-04 13:54:00 2 Days 2 Hours 33 Minutes NA-Greybriar 53 37 17
54 Warcry NA-Faeblight 2013-03-18 10:59:00 13 Days 20 Hours 5 Minutes NA-Faeblight 54 38 7
55 Shai Hulud EU-Brisesol 2013-03-27 06:09:00 8 Days 19 Hours 10 Minutes EU-Brisesol 55 17
56 Dol Amroth NA-Deepwood 2013-04-02 12:00:00 6 Days 5 Hours 51 Minutes NA-Deepwood 56 39 9
57 Pyre NA-Greybriar 2013-04-03 10:20:00 0 Days 22 Hours 20 Minutes NA-Greybriar 57 40 18
58 Ascendance NA-Greybriar 2013-04-26 14:46:00 23 Days 4 Hours 26 Minutes NA-Greybriar 58 41 19
59 L'Ordre Draconique EU-Brisesol 2013-05-02 07:00:00 5 Days 16 Hours 14 Minutes EU-Brisesol 59 18 4
60 Nirvana NA-Wolfsbane 2013-05-03 16:00:00 1 Days 9 Hours 0 Minutes NA-Wolfsbane 60 42 4
61 Les 3 Royaumes EU-Brisesol 2013-06-27 07:00:00 54 Days 15 Hours 0 Minutes EU-Brisesol 61 19 5
62 Les Trois Royaumes EU-Brisesol 2013-06-27 07:18:00 0 Days 0 Hours 18 Minutes EU-Brisesol 62 20 6
63 Requiem-Brutmutter EU-Brutwacht 2013-07-07 23:16:00 10 Days 15 Hours 58 Minutes EU-Brutwacht 63 21 5
64 Requiem EU-Zaviel 2013-07-16 06:24:00 8 Days 7 Hours 8 Minutes EU-Zaviel 64 22 6
65 Rift Shifters EU-Zaviel 2013-07-17 09:00:00 1 Days 2 Hours 36 Minutes EU-Zaviel 65 23 7
66 distorted Insanity Crew EU-Brutwacht 2013-07-22 05:12:00 4 Days 20 Hours 12 Minutes EU-Brutwacht 66 24 6
67 Fierce NA-Hailol 2013-08-11 11:09:00 20 Days 5 Hours 57 Minutes NA-Hailol 67 43
68 Apotheosys EU-Typhiria 2013-09-04 04:00:00 23 Days 16 Hours 51 Minutes EU-Typhiria 68 25
69 Holy Wisdom NA-Laethys 2013-09-20 00:18:00 15 Days 20 Hours 18 Minutes NA-Laethys 69 44
70 Nornes EU-Brisesol 2013-10-06 07:00:00 16 Days 6 Hours 42 Minutes EU-Brisesol 70 26 7
71 Trash on Farm EU-Gelidra 2013-12-27 09:00:00 82 Days 3 Hours 0 Minutes EU-Gelidra 71 27 4
72 PHX EU-Brisesol 2013-12-31 09:00:00 4 Days 0 Hours 0 Minutes EU-Brisesol 72 28 8
73 Valhalla EU-Typhiria 2013-12-31 09:00:00 --- EU-Typhiria 73 29 4
74 Rise of the Forgotten NA-Laethys 2013-12-31 16:00:00 0 Days 7 Hours 0 Minutes NA-Laethys 74 45
75 Sigmathu EU-Brisesol 2014-01-12 06:16:00 11 Days 14 Hours 16 Minutes EU-Brisesol 75 30 9
76 Fat Kids with Cake NA-Deepwood 2014-01-12 12:00:00 0 Days 5 Hours 44 Minutes NA-Deepwood 76 46 10
77 The Dawntreaders NA-Greybriar 2014-01-14 13:00:00 2 Days 1 Hours 0 Minutes NA-Greybriar 77 47 20
78 Critical Hit NA-Hailol 2014-02-09 10:51:00 25 Days 21 Hours 51 Minutes NA-Hailol 78 48 4
79 Silhouette NA-Greybriar 2014-02-27 14:00:00 18 Days 3 Hours 9 Minutes NA-Greybriar 79 49 21
80 Night Avengers EU-Zaviel 2014-07-14 19:13:00 137 Days 4 Hours 13 Minutes EU-Zaviel 80 31 8
81 -Hello Kitty- NA-Deepwood 2015-11-15 09:23:00 488 Days 15 Hours 10 Minutes NA-Deepwood 81 50 11
82 Blood and Glory NA-Faeblight 2016-06-04 06:06:00 201 Days 19 Hours 43 Minutes NA-Faeblight 82 51 8
83 Gaiscioch NA-Faeblight 2017-01-16 10:18:00 226 Days 5 Hours 12 Minutes NA-Faeblight 83 52 9
WF World First RF Region First SF Server First WR World Rank RR Region Rank SR Server Rank